| time (UTC) | temp F | wind direction | speed MPH | gust MPH | rain 1hr in | rain 24hr in | rain mn in | humidity % | barometer mb |
| 20260506110027 | 52 | 231 | 0.0 | 1.0 | 0.00 | 0.00 | 0.00 | 98 | 1011.8 |
| 20260506104527 | 52 | 136 | 0.0 | 3.0 | 0.00 | 0.00 | 0.00 | 98 | 1011.9 |
| 20260506103022 | 52 | 311 | 0.0 | 2.0 | 0.00 | 0.00 | 0.00 | 98 | 1010.4 |
| 20260506101533 | 52 | 256 | 0.0 | 2.0 | 0.00 | 0.00 | 0.00 | 98 | 1010.5 |
| 20260506100018 | 53 | 320 | 0.0 | 3.0 | 0.00 | 0.00 | 0.00 | 98 | 1009.7 |
| 20260506094523 | 53 | 293 | 0.0 | 1.0 | 0.00 | 0.00 | 0.00 | 98 | 1010.6 |
| 20260506093018 | 53 | 328 | 0.0 | 2.0 | 0.00 | 0.00 | 0.00 | 98 | 1009.7 |
| 20260506091515 | 53 | 255 | 0.0 | 4.0 | 0.00 | 0.00 | 0.00 | 98 | 1008.9 |
| 20260506090012 | 53 | 139 | 2.0 | 4.0 | 0.00 | 0.00 | 0.00 | 98 | 1009.2 |
| 20260506084511 | 54 | 300 | 1.0 | 3.0 | 0.00 | 0.00 | 0.00 | 97 | 1009.4 |
| 20260506083009 | 54 | 137 | 0.0 | 5.0 | 0.00 | 0.00 | 0.00 | 97 | 1009.5 |
| 20260506081504 | 55 | 336 | 2.0 | 6.0 | 0.00 | 0.00 | 0.00 | 96 | 1009.6 |
| 20260506080103 | 57 | 7 | 1.0 | 5.0 | 0.00 | 0.00 | 0.00 | 95 | 1008.8 |
| 20260506073052 | 64 | 279 | 2.0 | 11.0 | 0.00 | 0.00 | 0.00 | 93 | 1008.4 |
| 20260506071548 | 67 | 229 | 0.0 | 1.0 | 0.00 | 0.00 | 0.00 | 94 | 1008.0 |
| 20260506061539 | 69 | 210 | 0.0 | 12.0 | 0.00 | 0.00 | 0.00 | 89 | 1007.0 |
| 20260506044604 | 69 | 203 | 1.0 | 9.0 | 0.00 | 0.00 | 0.00 | 88 | 1007.6 |
| 20260506043031 | 69 | 185 | 3.0 | 10.0 | 0.00 | 0.00 | 0.00 | 88 | 1007.6 |
| 20260506041525 | 69 | 196 | 1.0 | 8.0 | 0.00 | 0.00 | 0.00 | 89 | 1007.9 |
| 20260506040028 | 68 | 199 | 1.0 | 6.0 | 0.00 | 0.00 | 0.00 | 90 | 1008.1 |
| 20260506034544 | 68 | 165 | 0.0 | 5.0 | 0.00 | 0.00 | 0.00 | 90 | 1007.9 |
| 20260506033022 | 67 | 156 | 2.0 | 9.0 | 0.00 | 0.00 | 0.00 | 91 | 1007.9 |
| 20260506031521 | 67 | 172 | 2.0 | 7.0 | 0.00 | 0.00 | 0.00 | 92 | 1008.4 |
| 20260506030019 | 67 | 219 | 0.0 | 5.0 | 0.00 | 0.00 | 0.00 | 92 | 1008.3 |
| 20260506024519 | 67 | 205 | 0.0 | 5.0 | 0.00 | 0.00 | 0.00 | 93 | 1008.3 |
| 20260506023018 | 67 | 216 | 1.0 | 6.0 | 0.00 | 0.00 | 0.00 | 93 | 1008.2 |
| 20260506021516 | 66 | 206 | 1.0 | 4.0 | 0.00 | 0.00 | 0.00 | 94 | 1008.2 |
| 20260506020014 | 66 | 244 | 0.0 | 4.0 | 0.00 | 0.00 | 0.00 | 96 | 1008.1 |
| 20260506014517 | 65 | 229 | 0.0 | 3.0 | 0.00 | 0.00 | 0.00 | 96 | 1007.9 |
| 20260506013013 | 65 | 203 | 0.0 | 4.0 | 0.00 | 0.00 | 0.00 | 97 | 1007.9 |
| 20260506011515 | 65 | 232 | 1.0 | 5.0 | 0.00 | 0.00 | 0.00 | 97 | 1007.9 |
| 20260506010010 | 65 | 229 | 0.0 | 2.0 | 0.00 | 0.00 | 0.00 | 97 | 1007.6 |
| 20260506004520 | 65 | 229 | 0.0 | 2.0 | 0.00 | 0.00 | 0.00 | 97 | 1007.9 |
| 20260506003010 | 64 | 226 | 0.0 | 3.0 | 0.00 | 0.00 | 0.00 | 97 | 1007.7 |
| 20260506001507 | 64 | 188 | 0.0 | 3.0 | 0.00 | 0.00 | 0.00 | 98 | 1007.8 |
| 20260506000006 | 64 | 229 | 0.0 | 3.0 | 0.00 | 0.00 | 0.00 | 98 | 1007.7 |
| 20260505234509 | 64 | 206 | 0.0 | 4.0 | 0.00 | 0.00 | 0.00 | 98 | 1007.9 |
| 20260505233008 | 64 | 226 | 0.0 | 2.0 | 0.00 | 0.00 | 0.00 | 98 | 1008.0 |
| 20260505231509 | 64 | 215 | 0.0 | 4.0 | 0.00 | 0.00 | 0.00 | 98 | 1007.9 |
| 20260505230006 | 64 | 231 | 0.0 | 1.0 | 0.00 | 0.00 | 0.00 | 98 | 1007.8 |
| 20260505224502 | 63 | 142 | 0.0 | 3.0 | 0.00 | 0.00 | 0.00 | 98 | 1007.8 |
| 20260505223001 | 63 | 230 | 1.0 | 3.0 | 0.00 | 0.00 | 0.00 | 98 | 1008.0 |
| 20260505221604 | 63 | 207 | 0.0 | 7.0 | 0.00 | 0.00 | 0.00 | 98 | 1008.2 |
| 20260505220106 | 63 | 226 | 1.0 | 5.0 | 0.00 | 0.00 | 0.00 | 98 | 1008.4 |
| 20260505214605 | 63 | 255 | 0.0 | 4.0 | 0.00 | 0.00 | 0.00 | 98 | 1008.5 |
| 20260505213103 | 63 | 151 | 0.0 | 4.0 | 0.00 | 0.00 | 0.00 | 98 | 1008.6 |
| 20260505211602 | 63 | 186 | 1.0 | 6.0 | 0.00 | 0.00 | 0.00 | 98 | 1008.6 |
| 20260505210056 | 64 | 235 | 1.0 | 5.0 | 0.00 | 0.00 | 0.00 | 98 | 1008.6 |
| 20260505204555 | 64 | 171 | 0.0 | 3.0 | 0.00 | 0.00 | 0.00 | 98 | 1008.5 |
| 20260505203054 | 64 | 204 | 0.0 | 5.0 | 0.00 | 0.00 | 0.00 | 98 | 1008.7 |
| 20260505201552 | 64 | 219 | 1.0 | 4.0 | 0.00 | 0.00 | 0.00 | 99 | 1008.7 |
| 20260505200051 | 64 | 222 | 0.0 | 2.0 | 0.00 | 0.00 | 0.00 | 99 | 1008.7 |
| 20260505194549 | 63 | 162 | 0.0 | 1.0 | 0.00 | 0.00 | 0.00 | 99 | 1008.7 |
| 20260505193049 | 63 | 199 | 0.0 | 4.0 | 0.00 | 0.00 | 0.00 | 98 | 1009.0 |
| 20260505191554 | 62 | 205 | 0.0 | 2.0 | 0.00 | 0.00 | 0.00 | 98 | 1009.1 |
| 20260505190043 | 62 | 204 | 0.0 | 4.0 | 0.00 | 0.00 | 0.00 | 98 | 1009.7 |
| 20260505184543 | 61 | 172 | 1.0 | 2.0 | 0.00 | 0.00 | 0.00 | 98 | 1009.7 |
| 20260505183040 | 61 | 206 | 0.0 | 7.0 | 0.00 | 0.00 | 0.00 | 98 | 1010.4 |
| 20260505181540 | 61 | 203 | 1.0 | 6.0 | 0.00 | 0.00 | 0.00 | 97 | 1010.3 |
| 20260505180049 | 61 | 215 | 2.0 | 5.0 | 0.00 | 0.00 | 0.00 | 97 | 1010.1 |
| 20260505174548 | 61 | 167 | 3.0 | 10.0 | 0.00 | 0.00 | 0.00 | 97 | 1009.9 |
| 20260505173037 | 61 | 253 | 2.0 | 7.0 | 0.00 | 0.00 | 0.00 | 97 | 1009.5 |
| 20260505171536 | 61 | 224 | 3.0 | 12.0 | 0.00 | 0.00 | 0.00 | 97 | 1010.7 |
| 20260505170036 | 60 | 158 | 3.0 | 11.0 | 0.00 | 0.00 | 0.00 | 97 | 1009.3 |
| 20260505164534 | 60 | 193 | 3.0 | 12.0 | 0.00 | 0.00 | 0.00 | 97 | 1009.8 |
| 20260505163038 | 60 | 235 | 1.0 | 6.0 | 0.00 | 0.00 | 0.00 | 96 | 1010.3 |
| 20260505161533 | 60 | 200 | 1.0 | 6.0 | 0.00 | 0.00 | 0.00 | 95 | 1010.7 |
| 20260505153035 | 59 | 223 | 0.0 | 5.0 | 0.00 | 0.00 | 0.00 | 94 | 1011.2 |
| 20260505151530 | 59 | 191 | 1.0 | 4.0 | 0.00 | 0.00 | 0.00 | 93 | 1011.1 |
| 20260505124518 | 60 | 213 | 1.0 | 5.0 | 0.00 | 0.00 | 0.00 | 85 | 1011.5 |
| 20260505123014 | 59 | 160 | 0.0 | 4.0 | 0.00 | 0.00 | 0.00 | 85 | 1011.3 |
| 20260505121514 | 58 | 213 | 0.0 | 3.0 | 0.00 | 0.00 | 0.00 | 86 | 1011.4 |
| 20260505120010 | 58 | 227 | 0.0 | 3.0 | 0.00 | 0.00 | 0.00 | 87 | 1011.0 |
| 20260505114509 | 57 | 228 | 0.0 | 1.0 | 0.00 | 0.00 | 0.00 | 88 | 1010.4 |
| 20260505113008 | 56 | 229 | 0.0 | 1.0 | 0.00 | 0.00 | 0.00 | 90 | 1010.4 |
| 20260505111508 | 56 | 228 | 0.0 | 1.0 | 0.00 | 0.00 | 0.00 | 91 | 1010.5 |